User: anonymous   Login
Location: Unspecified
(0.0000°N, 0.0000°E)
Time: 02:35:20
(UTC+00:00)
Language:

USA 238 DEB - Orbit

View from above orbital plane
View from above orbital plane
View from above satellite
View from above satellite

Ground track
Ground track

The orbit data is extracted from the following two-line orbital elements,

1 38773U 12048P   23075.71337515 0.00000000  00000-0  00000-0 0    05
2 38773  63.4308 358.8653 0213356 358.8613   1.1387 13.40727647    07
Epoch (UTC): 16 March 2023 17:07:15
Eccentricity: 0.0213356
inclination: 63.4308°
perigee height: 947 km
apogee height: 1266 km
right ascension of ascending node: 358.8653°
argument of perigee: 358.8613°
revolutions per day: 13.40727647
mean anomaly at epoch: 1.1387°
orbit number at epoch: 0

The dashed part of the orbit path shows where the satellite is in the earth's shadow,  

DLR